[[{"header":{"parameterUnit":"m.s-1","parameterCategory":1,"la1":30.2992,"la2":30.254,"lo1":-89.0895,"lo2":-89.0443,"dy":0.0025,"dx":0.0025,"nx":19,"ny":19,"refTime":"2026-04-02T09:00:00:Z","depth":0,"parameterNumber":2,"parameterNumberName":"U-component_of_WINDS"},"data":[0,0,0,-5.0906,-5.0909,-5.1062,-5.1063,-5.1262,-5.1264,0,0,0,0,0,0,0,0,0,0,0,-5.0864,-5.0865,-5.0905,-5.0909,-5.1062,-5.1063,-5.1262,-5.1264,0,0,0,0,0,0,0,0,0,0,0,-5.0863,-5.0865,-5.0867,-5.091,-5.1062,-5.1063,-5.1261,-5.1144,0,0,0,0,0,0,0,0,0,0,-5.0995,-5.096,-5.0865,-5.0867,-5.0911,-5.1062,-5.1063,-5.1138,-5.1151,-5.1195,0,-5.1235,0,-5.1253,-5.1278,-5.1278,0,0,0,-5.0906,-5.0949,-5.0988,-5.0867,-5.0912,-5.1062,-5.0992,-5.1146,-5.116,-5.1212,-5.1238,-5.1245,-5.1256,-5.1279,-5.128,-5.1545,-5.1546,0,0,-5.0898,-5.0893,-5.0977,-5.0997,-5.0976,-5.0987,-5.0997,-5.1154,-5.1182,-5.1239,-5.125,-5.126,-5.128,-5.1282,-5.1543,-5.1545,0,0,0,-5.0876,-5.0887,-5.0921,-5.0989,-5.1017,-5.0992,-5.1003,-5.1175,-5.1187,-5.1252,-5.1262,-5.1281,-5.1284,-5.1542,-5.1544,-5.1606,0,0,0,-5.087,-5.0874,-5.0918,-5.0916,-5.1014,-5.1098,-5.102,-5.1176,-5.1194,-5.1261,-5.1281,-5.1286,-5.154,-5.1543,-5.1601,-5.1635,0,0,0,-5.0853,-5.0872,-5.0895,-5.0916,-5.0981,-5.1095,-5.1116,-5.118,-5.12,-5.1278,-5.1286,-5.1539,-5.1542,-5.1597,-5.1628,-5.1702,0,0,0,-5.0831,-5.0948,-5.0896,-5.1031,-5.098,-5.1135,-5.1115,-5.123,-5.1305,-5.1282,-5.154,-5.1544,-5.1595,-5.1623,-5.1697,-5.1761,-5.1788,0,0,-5.0975,-5.0965,-5.1044,-5.1003,-5.1165,-5.1112,-5.1283,-5.1356,-5.1367,-5.1484,-5.1491,-5.1603,-5.1627,-5.1701,-5.1948,-5.1969,0,0,0,-5.1088,-5.1144,-5.1189,-5.1261,-5.1322,-5.1376,-5.1423,-5.1451,-5.1551,-5.1427,-5.1652,-5.1666,-5.171,-5.174,-5.1758,-5.1795,-5.1559,-5.1558,-5.1558,-5.1279,-5.1291,-5.1423,-5.1453,-5.1524,-5.1575,-5.1632,-5.1677,-5.1666,-5.172,-5.1753,-5.1902,-5.1938,-5.1951,-5.1989,-5.1791,-5.1791,-5.1791,-5.1792,-5.1488,-5.1568,-5.1556,-5.1679,-5.169,-5.1793,-5.1847,-5.1837,-5.1933,-5.1877,-5.1916,-5.1849,-5.1974,-5.2008,-5.1796,-5.1796,-5.1795,-5.1795,-5.1794,-5.1611,-5.1652,-5.1686,-5.1794,-5.1875,-5.1903,-5.1998,-5.2005,-5.2013,-5.2052,-5.2086,-5.2085,-5.2083,-5.2069,-5.2069,-5.207,-5.207,-5.2071,-5.2071,-5.1723,-5.176,-5.1839,-5.1917,-5.1965,-5.203,-5.2086,-5.2133,-5.2187,-5.2185,-5.2185,-5.2168,-5.1987,-5.1938,-5.2079,-5.2078,-5.2077,-5.2076,-5.2075,-5.1923,-5.188,-5.2002,-5.2051,-5.2144,-5.2224,-5.2236,-5.2333,-5.2374,-5.242,-5.2397,-5.2263,-5.2251,-5.2237,-5.2197,-5.2396,-5.2396,-5.2396,-5.2396,-5.2024,-5.2021,-5.2149,-5.2227,-5.2305,-5.2328,-5.2465,-5.2511,-5.255,-5.2576,-5.255,-5.2499,-5.2485,-5.2482,-5.2462,-5.2424,-5.2677,-5.2677,-5.2678,-5.2146,-5.2152,-5.2266,-5.2307,-5.2381,-5.2444,-5.2573,-5.2663,-5.2699,-5.2689,-5.2596,-5.2584,-5.2503,-5.2476,-5.2458,-5.2427,-5.2358,0,0]},{"header":{"parameterUnit":"m.s-1","parameterCategory":1,"la1":30.2992,"la2":30.254,"lo1":-89.0895,"lo2":-89.0443,"dy":0.0025,"dx":0.0025,"nx":19,"ny":19,"refTime":"2026-04-02T09:00:00:Z","depth":0,"parameterNumber":3,"parameterNumberName":"V-component_of_WINDS"},"data":[0,0,0,2.8654,2.8655,2.8699,2.8699,2.8746,2.8747,0,0,0,0,0,0,0,0,0,0,0,2.8636,2.8637,2.8654,2.8655,2.8699,2.8699,2.8746,2.8747,0,0,0,0,0,0,0,0,0,0,0,2.8636,2.8637,2.8637,2.8655,2.8699,2.8699,2.8746,2.8716,0,0,0,0,0,0,0,0,0,0,2.8675,2.8654,2.8637,2.8637,2.8655,2.8699,2.8699,2.8715,2.8718,2.8723,0,2.8728,0,2.8738,2.875,2.875,0,0,0,2.8658,2.8651,2.8668,2.8637,2.8656,2.8699,2.868,2.8717,2.872,2.8727,2.8728,2.873,2.8739,2.875,2.875,2.8776,2.8776,0,0,2.8655,2.8641,2.8665,2.867,2.8664,2.8678,2.8681,2.8719,2.8718,2.8728,2.8732,2.874,2.875,2.875,2.8776,2.8776,0,0,0,2.8646,2.8639,2.8655,2.8668,2.8677,2.868,2.8683,2.8717,2.8723,2.8732,2.874,2.875,2.8751,2.8776,2.8776,2.8763,0,0,0,2.8645,2.8634,2.8654,2.8646,2.8676,2.8697,2.868,2.872,2.8725,2.874,2.875,2.8751,2.8776,2.8776,2.8763,2.8759,0,0,0,2.8635,2.8633,2.8639,2.8645,2.8664,2.8697,2.8706,2.8722,2.873,2.875,2.8751,2.8776,2.8776,2.8764,2.8759,2.8762,0,0,0,2.862,2.8624,2.8638,2.8647,2.8663,2.869,2.8706,2.8725,2.8741,2.8751,2.8776,2.8776,2.8764,2.876,2.8763,2.8763,2.8761,0,0,2.8618,2.8624,2.863,2.8644,2.8665,2.8684,2.8703,2.8728,2.8742,2.8763,2.8764,2.8763,2.8759,2.8763,2.8759,2.8758,0,0,0,2.8625,2.8629,2.8638,2.8653,2.8675,2.8694,2.8719,2.8729,2.8748,2.875,2.8766,2.8764,2.8766,2.8767,2.8766,2.8769,2.8775,2.8775,2.8775,2.8601,2.8621,2.8633,2.8659,2.8673,2.8701,2.8715,2.8733,2.8745,2.8749,2.8755,2.8751,2.8751,2.8751,2.8754,2.8757,2.8757,2.8757,2.8757,2.86,2.861,2.8631,2.8651,2.8671,2.8687,2.8714,2.8724,2.8741,2.8747,2.875,2.8755,2.8749,2.8753,2.8756,2.8756,2.8756,2.8756,2.8756,2.8586,2.8595,2.8609,2.8636,2.8654,2.8679,2.8697,2.8714,2.873,2.8733,2.8742,2.8742,2.8745,2.8737,2.8737,2.8736,2.8736,2.8736,2.8736,2.8566,2.8583,2.8596,2.8623,2.8637,2.8657,2.8687,2.87,2.8719,2.8731,2.8731,2.8744,2.8745,2.8745,2.8736,2.8736,2.8736,2.8736,2.8736,2.8557,2.8563,2.8584,2.8598,2.8632,2.8649,2.8673,2.8699,2.8713,2.8721,2.8734,2.8733,2.8739,2.874,2.874,2.873,2.873,2.873,2.873,2.8546,2.8552,2.8579,2.8601,2.8624,2.8648,2.8671,2.8695,2.8719,2.8729,2.8733,2.8735,2.8735,2.8742,2.8742,2.8743,2.8734,2.8734,2.8734,2.8542,2.8552,2.8568,2.8596,2.8624,2.8648,2.867,2.8693,2.8722,2.8734,2.8737,2.8737,2.874,2.874,2.8751,2.8752,2.8753,0,0]}]]